{"data":{"norad_id":52935,"epoch":"2026-05-25T03:32:23.974080Z","epoch_age_seconds":73012,"freshness":"FRESH","line1":"1 52935U 22072A   26145.14749970  .00004566  00000+0  20222-3 0  9997","line2":"2 52935   9.9950 356.1352 0004209 332.6076  27.3917 15.13644623215018","mean_motion":15.13644623,"eccentricity":0.0004209,"inclination_deg":9.995,"raan_deg":356.1352,"arg_perigee_deg":332.6076,"mean_anomaly_deg":27.3917,"bstar":0.00020222,"rev_number":21501,"period_min":95.134616020104,"perigee_km":522.19086784795,"apogee_km":528.00200975673,"semimajor_km":6903.2334388023,"source":"CELESTRAK","updated_at":"2026-05-25T13:37:57.957443Z"}}